Content
SEND FEEDBACK

Daily
Averages
Monthly
Summary
United States of America

COLTON, NEW YORK


Home > North America > United States > New York
Elevation: 1760 feet     Latitude: 44 07N     Longitude: 074 40W

WEATHER
 
SELECT A DAY
Number of Records: 224,790;   Date Range: 1/1/95 - 7/26/14
 
SHARE

PRINT THIS DATA

[ ← Previous Day ]
WEATHER ALMANAC - FEBRUARY 5, 2013
[ Next Day → ]
[ °C ]   °F
Weather ElementAverageHighLow
Temperature2 °F17.1 °F (3:51 pm)-18.9 °F (5:51 am)
Dewpoint-9.1 °F1.9 °F (10:51 pm)-25.1 °F (6:51 am)
Humidity62.9 %91 % (8:51 am)34 % (3:51 pm)
Barometer29.92 in30.00 in (7:51 am)29.74 in (11:31 pm)
Wind Speed2.6 mph10.4 mph (11:51 am)
Weather ElementAverage
Visibility10 mi
Wind DirectionNE (47.4 °)

Weather ElementTotal
Precipitation---
Heating Degree Days65.9 (Base 65)
Averaged from 23 records on February 5, 2013
WEATHER CONDITIONS BREAKOUT
WIND DIRECTION BREAKOUT
WEATHER BY HOUR - FEBRUARY 5, 2013
[ °C ]   °F
Local TimeTemperatureDewpointHumidityBarometerVisibilityWind DirectionWind SpeedGust SpeedPrecipitationEventsConditions
1:51 AM-16.1 °F-20.0 °F82 %29.94 in10.0 miCalmClear
2:51 AM-17.0 °F-20.9 °F82 %29.93 in10.0 miCalmClear
3:51 AM-17.0 °F-23.1 °F74 %29.94 in10.0 miCalmClear
4:51 AM-18.0 °F-23.1 °F78 %29.95 in10.0 miCalmClear
5:51 AM-18.9 °F-24.0 °F78 %29.96 in10.0 miCalmClear
6:51 AM-18.9 °F-25.1 °F74 %29.97 in10.0 miCalmClear
7:51 AM-18.0 °F-24.0 °F74 %30.00 in10.0 miCalmClear
8:51 AM-9.0 °F-11.0 °F91 %30.00 in10.0 miCalmClear
9:51 AM1.9 °F-5.1 °F72 %29.99 in10.0 miCalmClear
10:51 AM8.1 °F-2.9 °F61 %29.99 in10.0 miSW (230°)9.2 mphClear
11:51 AM10.9 °F-7.1 °F44 %29.97 in10.0 miWSW (240°)10.4 mphClear
12:51 PM14.0 °F-5.1 °F43 %29.95 in10.0 miSSW (210°)9.2 mphClear
1:51 PM15.1 °F-5.1 °F41 %29.93 in10.0 miVariable5.8 mphClear
2:51 PM16.0 °F-6.0 °F38 %29.91 in10.0 miWSW (250°)6.9 mphClear
3:51 PM17.1 °F-7.1 °F34 %29.91 in10.0 miVariable3.5 mphMostly Cloudy
4:51 PM17.1 °F-5.1 °F37 %29.91 in10.0 miCalmOvercast
5:51 PM14.0 °F-0.9 °F52 %29.90 in10.0 miCalmOvercast
6:51 PM12.9 °F1.0 °F59 %29.89 in10.0 miENE (70°)6.9 mphOvercast
7:51 PM10.9 °F0.0 °F61 %29.90 in10.0 miNE (40°)3.5 mphMostly Cloudy
9:51 PM10.9 °F1.0 °F64 %29.87 in10.0 miNE (50°)3.5 mphOvercast
10:51 PM10.0 °F1.9 °F70 %29.86 in10.0 miCalmOvercast
11:31 PM10.4 °F1.4 °F67 %29.74 in10.0 miCalmOvercast
11:51 PM10.0 °F1.9 °F70 %29.84 in10.0 miCalmOvercast
Hourly data recorded from KSLK, located miles away from Colton, New York







STORIES FROM OUR PARTNERS